#timestamp,LO_Frequency,Hit,StdDev 
1581376795.3,286047009.0,P
1581376815.2,286047008.7,P
1581376835.0,286047009.0,P
1581376835.9,286047009.0,Y
1581376855.8,286047001.2,P
1581376875.6,286046999.0,N
1581376895.4,286046998.2,N
1581376915.3,286046998.3,N
1581376935.1,286046998.1,N
1581376955.8,286046998.9,N
1581376975.7,286046999.4,N
1581376995.5,286046998.4,N
1581377015.4,286046998.7,N
1581377035.2,286046998.7,N
1581377055.0,286047001.1,N
1581377055.9,286047001.1,N
1581377075.8,286046998.1,N
1581377095.6,286047001.0,N
1581377115.4,286046998.8,N
1581377135.3,286046999.1,N
1581377155.1,286046999.1,N
1581377175.9,286046998.4,N
1581377195.7,286046998.9,N
1581377215.5,286046999.2,N
1581377235.4,286046998.3,N
1581377255.2,286046999.2,N
1581377275.0,286046999.6,N
1581377275.9,286046999.6,N
1581377295.8,286046999.3,N
1581377315.6,286046998.3,N
1581377335.5,286046999.5,N
1581377355.3,286046996.7,N
1581377375.1,286046998.4,N
1581377395.9,286047001.0,N
1581377415.7,286046998.1,N
1581377435.5,286047000.2,N
1581377455.4,286047000.5,N
1581377475.2,286046998.2,N
1581377495.1,286046998.3,N
1581377496.0,286046998.3,N
1581377515.8,286046998.6,N
1581377535.6,286046999.0,N
1581377555.5,286046999.5,N
1581377575.3,286046999.1,N
1581377595.1,286046998.9,N
1581377615.9,286046996.6,Y
1581377635.7,286046999.5,P
1581377655.6,286046999.1,P
1581377675.4,286046998.4,P
1581377695.2,286046998.3,Y
1581377715.1,286047000.5,P
1581377716.0,286047000.5,N
1581377735.8,286047000.5,N
1581377755.7,286047000.9,N
1581377775.5,286047000.5,N
1581377795.3,286047002.0,Y
1581377815.2,286047002.6,P
1581377835.0,286047002.4,N
1581377835.9,286047002.4,N
1581377855.8,286047004.1,Y
1581377875.6,286047001.8,P
1581377895.4,286047003.1,P
1581377915.3,286047003.1,P
1581377935.1,286047005.6,Y
1581377955.9,286047001.8,P
1581377975.7,286047002.1,P
1581377995.5,286047002.6,P
1581378015.4,286047002.8,Y
1581378035.2,286047000.7,P
1581378055.1,286047000.7,N
1581378056.0,286047000.7,N
1581378075.8,286047000.5,N
1581378095.6,286047001.2,N
1581378115.5,286047000.7,N
1581378135.3,286047000.7,N
1581378155.1,286047002.8,Y
1581378175.9,286047000.6,P
1581378195.7,286047001.0,P
1581378215.6,286047000.0,N
1581378235.4,286047000.9,N
1581378255.2,286047000.8,N
1581378275.1,286046998.1,Y
1581378276.0,286046998.1,P
1581378295.8,286046999.6,N
1581378315.7,286046999.6,N
1581378335.5,286046997.0,Y
1581378355.3,286046999.1,P
1581378375.2,286047000.7,P
1581378395.0,286046998.2,N
1581378395.9,286046998.2,N
1581378415.7,286046998.1,N
1581378435.6,286047000.7,N
1581378455.4,286046998.1,N
1581378475.3,286047001.1,N
1581378495.1,286047000.7,N
1581378515.8,286046999.4,N
1581378535.7,286046996.5,Y
1581378555.5,286046998.5,P
1581378575.4,286047001.1,N
1581378595.2,286047001.2,N
1581378615.0,286046998.2,N
1581378615.9,286046998.2,N
1581378635.8,286047000.8,N
1581378655.6,286046998.5,N
1581378675.4,286046999.0,N
1581378695.3,286046998.4,N
1581378715.1,286046999.5,N
1581378735.9,286046996.5,Y
1581378755.7,286046996.6,P
1581378775.5,286046999.6,N
1581378795.4,286046999.0,N
1581378815.2,286046999.2,N
1581378835.1,286046998.8,N
1581378836.0,286046998.8,N
1581378855.8,286046996.7,Y
1581378875.6,286046998.3,P
1581378895.5,286046998.8,P
1581378915.3,286046998.8,P
1581378935.1,286046998.3,Y
1581378955.9,286047001.2,P
1581378975.7,286046998.5,N
1581378995.6,286047001.2,N
1581379015.4,286047001.2,N
1581379065.3,286046998.9,E
1581379075.2,286047001.0,N
1581379095.0,286046998.1,P
1581379095.9,286046998.1,N
1581379115.8,286046998.7,N
1581379135.6,286047001.1,N
1581379155.4,286047001.1,N
1581379175.3,286046998.3,N
1581379195.1,286047001.2,N
